| time (UTC) | temp C | wind direction | speed KPH | gust KPH | rain 1hr cm | rain 24hr cm | rain mn cm | humidity % | barometer mb |
| 20260504173604 | 12 | 93 | 9.7 | 20.9 | 0.00 | 1.02 | 0.97 | 79 | 950.1 |
| 20260504173503 | 12 | 130 | 8.0 | 20.9 | 0.00 | 1.02 | 0.97 | 79 | 950.1 |
| 20260504173102 | 12 | 90 | 3.2 | 20.9 | 0.00 | 1.02 | 0.97 | 80 | 950.0 |
| 20260504173003 | 12 | 234 | 1.6 | 20.9 | 0.00 | 1.02 | 0.97 | 80 | 950.1 |
| 20260504172602 | 12 | 121 | 3.2 | 17.7 | 0.00 | 1.02 | 0.97 | 79 | 950.2 |
| 20260504172502 | 12 | 72 | 4.8 | 17.7 | 0.00 | 1.02 | 0.97 | 79 | 950.2 |
| 20260504172213 | 12 | 116 | 4.8 | 17.7 | 0.00 | 1.02 | 0.97 | 82 | 950.2 |
| 20260504171605 | 12 | 97 | 6.4 | 9.7 | 0.00 | 1.02 | 0.97 | 81 | 950.0 |
| 20260504171503 | 12 | 133 | 4.8 | 16.1 | 0.00 | 1.02 | 0.97 | 82 | 950.1 |
| 20260504171211 | 12 | 87 | 3.2 | 17.7 | 0.00 | 1.02 | 0.97 | 82 | 950.1 |
| 20260504170710 | 11 | 110 | 8.0 | 19.3 | 0.00 | 1.02 | 0.97 | 82 | 950.1 |
| 20260504170212 | 12 | 121 | 6.4 | 19.3 | 0.00 | 1.02 | 0.97 | 82 | 950.2 |
| 20260504151039 | 12 | 94 | 6.4 | 11.3 | 0.00 | 1.02 | 0.97 | 81 | 949.6 |
| 20260504151003 | 12 | 114 | 6.4 | 11.3 | 0.00 | 1.02 | 0.97 | 81 | 949.6 |
| 20260504150537 | 12 | 94 | 4.8 | 20.9 | 0.00 | 1.02 | 0.97 | 79 | 949.6 |
| 20260504150502 | 12 | 164 | 4.8 | 20.9 | 0.00 | 1.02 | 0.97 | 79 | 949.7 |
| 20260504141031 | 11 | 106 | 4.8 | 19.3 | 0.13 | 1.02 | 0.97 | 84 | 949.7 |
| 20260504141002 | 11 | 96 | 8.0 | 19.3 | 0.13 | 1.02 | 0.97 | 85 | 949.7 |
| 20260504140532 | 11 | 94 | 6.4 | 17.7 | 0.15 | 1.02 | 0.97 | 86 | 949.6 |
| 20260504140503 | 11 | 76 | 8.0 | 17.7 | 0.15 | 1.02 | 0.97 | 86 | 949.6 |
| 20260504140211 | 11 | 87 | 3.2 | 8.0 | 0.23 | 1.02 | 0.97 | 88 | 949.5 |
| 20260504130532 | 10 | 94 | 1.6 | 14.5 | 0.69 | 0.91 | 0.79 | 91 | 950.3 |
| 20260504130503 | 10 | 93 | 1.6 | 14.5 | 0.69 | 0.91 | 0.79 | 92 | 950.3 |
| 20260504130211 | 10 | 127 | 8.0 | 14.5 | 0.61 | 0.91 | 0.74 | 92 | 950.4 |
| 20260504120211 | 11 | 128 | 17.7 | 27.4 | 0.03 | 0.33 | 0.13 | 86 | 948.8 |
| 20260504110531 | 12 | 151 | 9.7 | 27.4 | 0.00 | 0.33 | 0.10 | 86 | 949.4 |
| 20260504110502 | 12 | 111 | 12.9 | 27.4 | 0.00 | 0.33 | 0.10 | 85 | 949.4 |
| 20260504100532 | 14 | 128 | 6.4 | 9.7 | 0.00 | 0.33 | 0.10 | 85 | 949.4 |
| 20260504100503 | 14 | 123 | 6.4 | 8.0 | 0.00 | 0.33 | 0.10 | 85 | 949.4 |
| 20260504081711 | 13 | 125 | 1.6 | 4.8 | 0.00 | 0.33 | 0.10 | 90 | 949.4 |
| 20260504081210 | 13 | 120 | 0.0 | 6.4 | 0.00 | 0.33 | 0.10 | 91 | 949.4 |
| 20260504080501 | 12 | 100 | 4.8 | 6.4 | 0.00 | 0.33 | 0.10 | 91 | 949.3 |
| 20260504050426 | 11 | 120 | 0.0 | 1.6 | 0.00 | 0.33 | 0.10 | 95 | 948.8 |
| 20260504045925 | 11 | 117 | 0.0 | 3.2 | 0.00 | 0.33 | 0.10 | 95 | 948.8 |
| 20260504045425 | 11 | 117 | 0.0 | 6.4 | 0.00 | 0.33 | 0.10 | 95 | 948.8 |
| 20260504044925 | 11 | 106 | 3.2 | 6.4 | 0.00 | 0.33 | 0.10 | 95 | 948.9 |
| 20260504044425 | 11 | 245 | 1.6 | 3.2 | 0.00 | 0.33 | 0.10 | 95 | 948.9 |
| 20260504043924 | 11 | 245 | 0.0 | 3.2 | 0.00 | 0.33 | 0.10 | 96 | 948.8 |
| 20260504043424 | 11 | 245 | 0.0 | 3.2 | 0.00 | 0.33 | 0.10 | 96 | 948.9 |
| 20260504042924 | 11 | 247 | 1.6 | 3.2 | 0.00 | 0.33 | 0.10 | 96 | 948.8 |
| 20260504042424 | 11 | 152 | 0.0 | 0.0 | 0.00 | 0.33 | 0.10 | 96 | 948.9 |
| 20260504041924 | 11 | 130 | 0.0 | 3.2 | 0.00 | 0.33 | 0.10 | 96 | 948.9 |
| 20260504041424 | 11 | 130 | 0.0 | 3.2 | 0.00 | 0.33 | 0.10 | 96 | 948.8 |
| 20260504040924 | 11 | 93 | 1.6 | 1.6 | 0.00 | 0.33 | 0.10 | 96 | 948.9 |
| 20260504040632 | 11 | 161 | 0.0 | 1.6 | 0.00 | 0.33 | 0.10 | 96 | 948.9 |
| 20260504035923 | 11 | 161 | 0.0 | 0.0 | 0.00 | 0.33 | 0.10 | 96 | 948.9 |
| 20260504035424 | 11 | 161 | 0.0 | 1.6 | 0.00 | 0.33 | 0.10 | 96 | 949.0 |
| 20260504034923 | 11 | 161 | 0.0 | 1.6 | 0.00 | 0.33 | 0.10 | 95 | 948.9 |
| 20260504034423 | 11 | 161 | 0.0 | 1.6 | 0.00 | 0.33 | 0.10 | 96 | 949.0 |
| 20260504033924 | 11 | 13 | 0.0 | 0.0 | 0.00 | 0.33 | 0.10 | 95 | 949.0 |
| 20260504033423 | 11 | 13 | 0.0 | 0.0 | 0.00 | 0.33 | 0.10 | 96 | 949.0 |
| 20260504032923 | 11 | 13 | 0.0 | 0.0 | 0.00 | 0.33 | 0.10 | 95 | 949.0 |
| 20260504032423 | 11 | 13 | 0.0 | 0.0 | 0.00 | 0.33 | 0.10 | 95 | 949.1 |
| 20260504031923 | 11 | 13 | 0.0 | 4.8 | 0.00 | 0.33 | 0.10 | 95 | 949.2 |
| 20260504031631 | 11 | 13 | 1.6 | 4.8 | 0.00 | 0.33 | 0.10 | 95 | 949.2 |
| 20260504031130 | 11 | 148 | 0.0 | 0.0 | 0.00 | 0.33 | 0.10 | 95 | 949.1 |
| 20260504030423 | 11 | 148 | 0.0 | 0.0 | 0.00 | 0.33 | 0.10 | 95 | 949.2 |
| 20260504030131 | 11 | 148 | 0.0 | 0.0 | 0.00 | 0.33 | 0.10 | 96 | 949.2 |
| 20260504025423 | 11 | 148 | 0.0 | 0.0 | 0.00 | 0.33 | 0.10 | 95 | 949.2 |
| 20260504025130 | 11 | 148 | 0.0 | 0.0 | 0.00 | 0.33 | 0.10 | 95 | 949.2 |
| 20260504024630 | 11 | 148 | 0.0 | 0.0 | 0.00 | 0.33 | 0.10 | 95 | 949.2 |
| 20260504023922 | 11 | 148 | 0.0 | 0.0 | 0.00 | 0.33 | 0.10 | 95 | 949.3 |
| 20260504023422 | 11 | 148 | 0.0 | 0.0 | 0.00 | 0.33 | 0.10 | 95 | 949.3 |
| 20260504022925 | 11 | 148 | 0.0 | 0.0 | 0.00 | 0.33 | 0.10 | 95 | 949.3 |
| 20260504022921 | 11 | 148 | 0.0 | 0.0 | 0.00 | 0.33 | 0.10 | 95 | 949.2 |
| 20260504022421 | 11 | 148 | 0.0 | 3.2 | 0.00 | 0.33 | 0.10 | 95 | 949.3 |
| 20260504022130 | 11 | 148 | 0.0 | 3.2 | 0.00 | 0.33 | 0.10 | 94 | 949.2 |
| 20260504021421 | 12 | 148 | 0.0 | 0.0 | 0.00 | 0.33 | 0.10 | 95 | 949.2 |
| 20260504020922 | 12 | 148 | 0.0 | 0.0 | 0.03 | 0.33 | 0.10 | 95 | 949.3 |
| 20260504020421 | 12 | 148 | 0.0 | 0.0 | 0.03 | 0.33 | 0.10 | 95 | 949.2 |
| 20260504015921 | 12 | 148 | 0.0 | 0.0 | 0.03 | 0.33 | 0.10 | 94 | 949.2 |
| 20260504015421 | 12 | 148 | 0.0 | 4.8 | 0.05 | 0.33 | 0.10 | 94 | 949.2 |
| 20260504014921 | 11 | 148 | 0.0 | 9.7 | 0.05 | 0.33 | 0.10 | 94 | 949.1 |
| 20260504014421 | 11 | 155 | 3.2 | 9.7 | 0.05 | 0.33 | 0.10 | 93 | 949.2 |
| 20260504013921 | 12 | 120 | 1.6 | 8.0 | 0.05 | 0.33 | 0.10 | 94 | 949.3 |
| 20260504013629 | 12 | 154 | 1.6 | 9.7 | 0.05 | 0.33 | 0.10 | 94 | 949.2 |
| 20260504012920 | 12 | 120 | 8.0 | 9.7 | 0.05 | 0.33 | 0.10 | 93 | 949.2 |
| 20260504012420 | 12 | 121 | 3.2 | 4.8 | 0.05 | 0.33 | 0.10 | 93 | 949.2 |
| 20260504011921 | 12 | 226 | 0.0 | 3.2 | 0.05 | 0.33 | 0.10 | 93 | 949.2 |
| 20260504011420 | 12 | 235 | 0.0 | 3.2 | 0.05 | 0.33 | 0.10 | 93 | 949.2 |
| 20260504010920 | 12 | 240 | 1.6 | 3.2 | 0.05 | 0.33 | 0.08 | 93 | 949.2 |
| 20260504010420 | 12 | 213 | 0.0 | 3.2 | 0.05 | 0.33 | 0.08 | 93 | 949.1 |
| 20260504005920 | 12 | 226 | 0.0 | 3.2 | 0.05 | 0.28 | 0.08 | 93 | 949.0 |
| 20260504005419 | 12 | 128 | 0.0 | 4.8 | 0.00 | 0.28 | 0.05 | 93 | 949.2 |
| 20260504005128 | 12 | 125 | 0.0 | 4.8 | 0.00 | 0.28 | 0.05 | 93 | 949.2 |
| 20260504004419 | 12 | 103 | 0.0 | 1.6 | 0.00 | 0.28 | 0.05 | 93 | 949.3 |
| 20260504003919 | 12 | 103 | 0.0 | 1.6 | 0.00 | 0.28 | 0.05 | 93 | 949.2 |
| 20260504003420 | 12 | 171 | 0.0 | 3.2 | 0.00 | 0.28 | 0.05 | 93 | 949.3 |
| 20260504002920 | 12 | 142 | 0.0 | 6.4 | 0.00 | 0.28 | 0.05 | 93 | 949.4 |
| 20260504002419 | 12 | 149 | 3.2 | 6.4 | 0.00 | 0.28 | 0.05 | 93 | 949.4 |
| 20260504001919 | 12 | 158 | 3.2 | 3.2 | 0.00 | 0.28 | 0.05 | 93 | 949.4 |
| 20260504001628 | 12 | 314 | 1.6 | 3.2 | 0.00 | 0.28 | 0.05 | 93 | 949.5 |
| 20260504001128 | 12 | 314 | 0.0 | 3.2 | 0.03 | 0.28 | 0.05 | 93 | 949.4 |
| 20260504000419 | 12 | 147 | 0.0 | 1.6 | 0.05 | 0.28 | 0.05 | 94 | 949.4 |
| 20260503235919 | 12 | 140 | 0.0 | 4.8 | 0.05 | 0.23 | 0.05 | 94 | 949.3 |
| 20260503235419 | 12 | 140 | 1.6 | 6.4 | 0.05 | 0.23 | 0.05 | 94 | 949.5 |
| 20260503234918 | 12 | 131 | 4.8 | 6.4 | 0.05 | 0.23 | 0.05 | 93 | 949.5 |
| 20260503234419 | 12 | 133 | 3.2 | 4.8 | 0.05 | 0.23 | 0.05 | 93 | 949.4 |
| 20260503233918 | 12 | 235 | 0.0 | 3.2 | 0.05 | 0.23 | 0.05 | 93 | 949.4 |
| 20260503233419 | 12 | 235 | 0.0 | 1.6 | 0.05 | 0.23 | 0.05 | 93 | 949.3 |
| 20260503233126 | 12 | 234 | 0.0 | 0.0 | 0.05 | 0.23 | 0.05 | 93 | 949.3 |
| 20260503232626 | 12 | 234 | 0.0 | 3.2 | 0.05 | 0.23 | 0.05 | 92 | 949.4 |
| 20260503231917 | 12 | 235 | 0.0 | 3.2 | 0.05 | 0.23 | 0.05 | 92 | 949.4 |
| 20260503231626 | 12 | 237 | 0.0 | 3.2 | 0.05 | 0.23 | 0.05 | 92 | 949.4 |
| 20260503230917 | 12 | 237 | 1.6 | 4.8 | 0.03 | 0.23 | 0.03 | 92 | 949.5 |
| 20260503230625 | 12 | 310 | 1.6 | 4.8 | 0.00 | 0.23 | 0.00 | 92 | 949.5 |
| 20260503230125 | 12 | 316 | 0.0 | 6.4 | 0.00 | 0.23 | 0.00 | 91 | 949.4 |
| 20260503225418 | 13 | 323 | 3.2 | 6.4 | 0.00 | 0.23 | 0.00 | 90 | 949.4 |
| 20260503224917 | 13 | 223 | 1.6 | 6.4 | 0.00 | 0.25 | 0.00 | 90 | 949.4 |
| 20260503224417 | 13 | 282 | 1.6 | 8.0 | 0.00 | 0.28 | 0.00 | 90 | 949.5 |
| 20260503223917 | 13 | 300 | 3.2 | 8.0 | 0.00 | 0.28 | 0.00 | 91 | 949.5 |
| 20260503223417 | 12 | 285 | 1.6 | 6.4 | 0.00 | 0.30 | 0.00 | 92 | 949.5 |
| 20260503222917 | 12 | 290 | 0.0 | 3.2 | 0.00 | 0.30 | 0.00 | 93 | 949.4 |
| 20260503222417 | 12 | 292 | 0.0 | 3.2 | 0.00 | 0.33 | 0.00 | 93 | 949.6 |
| 20260503221916 | 12 | 292 | 0.0 | 3.2 | 0.00 | 0.36 | 0.00 | 93 | 949.6 |
| 20260503221416 | 12 | 288 | 0.0 | 3.2 | 0.00 | 0.38 | 0.00 | 94 | 949.5 |
| 20260503221125 | 12 | 317 | 0.0 | 0.0 | 0.00 | 0.41 | 0.00 | 94 | 949.5 |
| 20260503220417 | 12 | 317 | 0.0 | 3.2 | 0.00 | 0.43 | 0.00 | 94 | 949.6 |
| 20260503215916 | 12 | 317 | 0.0 | 3.2 | 0.00 | 0.43 | 0.43 | 94 | 949.6 |
| 20260503215416 | 12 | 319 | 0.0 | 3.2 | 0.00 | 0.46 | 0.43 | 94 | 949.6 |
| 20260503214916 | 12 | 274 | 0.0 | 1.6 | 0.00 | 0.48 | 0.43 | 94 | 949.5 |
| 20260503214624 | 12 | 274 | 0.0 | 0.0 | 0.00 | 0.51 | 0.43 | 94 | 949.6 |
| 20260503213916 | 12 | 274 | 0.0 | 1.6 | 0.00 | 0.51 | 0.43 | 94 | 949.5 |
| 20260503213415 | 12 | 274 | 0.0 | 1.6 | 0.00 | 0.51 | 0.43 | 94 | 949.5 |
| 20260503213124 | 12 | 274 | 0.0 | 3.2 | 0.00 | 0.53 | 0.43 | 93 | 949.6 |
| 20260503212415 | 12 | 274 | 0.0 | 3.2 | 0.00 | 0.56 | 0.43 | 93 | 949.7 |
| 20260503211915 | 13 | 244 | 0.0 | 3.2 | 0.00 | 0.56 | 0.43 | 94 | 949.6 |
| 20260503211415 | 13 | 228 | 1.6 | 3.2 | 0.00 | 0.58 | 0.43 | 94 | 949.6 |
| 20260503210915 | 13 | 275 | 0.0 | 3.2 | 0.00 | 0.61 | 0.43 | 94 | 949.6 |
| 20260503210415 | 13 | 269 | 0.0 | 1.6 | 0.00 | 0.61 | 0.43 | 94 | 949.7 |
| 20260503205916 | 13 | 255 | 0.0 | 1.6 | 0.00 | 0.61 | 0.43 | 94 | 949.8 |
| 20260503205415 | 13 | 255 | 0.0 | 1.6 | 0.00 | 0.61 | 0.43 | 94 | 949.8 |
| 20260503205124 | 13 | 255 | 0.0 | 0.0 | 0.00 | 0.61 | 0.43 | 94 | 949.8 |
| 20260503204623 | 13 | 255 | 0.0 | 0.0 | 0.00 | 0.61 | 0.43 | 94 | 949.9 |
| 20260503203914 | 13 | 255 | 0.0 | 3.2 | 0.00 | 0.61 | 0.43 | 93 | 949.8 |
| 20260503203414 | 13 | 255 | 0.0 | 6.4 | 0.00 | 0.61 | 0.43 | 93 | 949.8 |
| 20260503202914 | 13 | 255 | 1.6 | 6.4 | 0.00 | 0.61 | 0.43 | 94 | 949.7 |
| 20260503202414 | 13 | 244 | 1.6 | 3.2 | 0.00 | 0.61 | 0.43 | 94 | 949.7 |
| 20260503201914 | 13 | 234 | 0.0 | 3.2 | 0.00 | 0.61 | 0.43 | 95 | 949.7 |
| 20260503201622 | 13 | 235 | 0.0 | 3.2 | 0.00 | 0.61 | 0.43 | 95 | 949.7 |
| 20260503201122 | 13 | 220 | 0.0 | 1.6 | 0.00 | 0.61 | 0.43 | 95 | 949.6 |
| 20260503200414 | 13 | 152 | 0.0 | 0.0 | 0.00 | 0.61 | 0.43 | 95 | 949.5 |
| 20260503195913 | 13 | 152 | 0.0 | 0.0 | 0.00 | 0.61 | 0.43 | 94 | 949.6 |
| 20260503195622 | 13 | 152 | 0.0 | 1.6 | 0.00 | 0.61 | 0.43 | 94 | 949.5 |
| 20260503194913 | 13 | 152 | 0.0 | 1.6 | 0.00 | 0.61 | 0.43 | 94 | 949.4 |
| 20260503194621 | 13 | 152 | 0.0 | 3.2 | 0.00 | 0.61 | 0.43 | 94 | 949.3 |
| 20260503194122 | 13 | 152 | 1.6 | 3.2 | 0.00 | 0.61 | 0.43 | 94 | 949.3 |
| 20260503193414 | 13 | 149 | 1.6 | 3.2 | 0.00 | 0.61 | 0.43 | 94 | 949.2 |
| 20260503193121 | 13 | 137 | 0.0 | 0.0 | 0.00 | 0.61 | 0.43 | 94 | 949.1 |
| 20260503192413 | 13 | 135 | 0.0 | 0.0 | 0.00 | 0.61 | 0.43 | 94 | 949.1 |
| 20260503192121 | 13 | 137 | 0.0 | 1.6 | 0.00 | 0.61 | 0.43 | 94 | 949.0 |
| 20260503191413 | 13 | 135 | 0.0 | 1.6 | 0.03 | 0.61 | 0.43 | 94 | 949.1 |
| 20260503191121 | 13 | 135 | 0.0 | 1.6 | 0.03 | 0.61 | 0.43 | 94 | 948.9 |
| 20260503190412 | 13 | 343 | 0.0 | 1.6 | 0.03 | 0.61 | 0.43 | 93 | 948.9 |
| 20260503185913 | 13 | 343 | 0.0 | 1.6 | 0.03 | 0.58 | 0.43 | 93 | 948.8 |
| 20260503185413 | 13 | 343 | 0.0 | 1.6 | 0.03 | 0.58 | 0.43 | 93 | 948.8 |
| 20260503184912 | 13 | 341 | 0.0 | 0.0 | 0.05 | 0.58 | 0.43 | 92 | 948.8 |
| 20260503184411 | 13 | 341 | 0.0 | 0.0 | 0.05 | 0.61 | 0.43 | 92 | 948.7 |
| 20260503183912 | 13 | 341 | 0.0 | 0.0 | 0.05 | 0.61 | 0.43 | 92 | 948.7 |
| 20260503183412 | 13 | 343 | 0.0 | 0.0 | 0.05 | 0.61 | 0.43 | 92 | 948.8 |
| 20260503182911 | 13 | 341 | 0.0 | 0.0 | 0.05 | 0.61 | 0.43 | 91 | 948.8 |
| 20260503182412 | 13 | 343 | 0.0 | 1.6 | 0.05 | 0.61 | 0.43 | 91 | 948.8 |
| 20260503181912 | 13 | 341 | 0.0 | 3.2 | 0.05 | 0.64 | 0.43 | 90 | 948.7 |
| 20260503181411 | 14 | 343 | 0.0 | 6.4 | 0.05 | 0.69 | 0.43 | 89 | 948.7 |
| 20260503180911 | 14 | 337 | 0.0 | 6.4 | 0.05 | 0.71 | 0.43 | 88 | 948.8 |
| 20260503180411 | 14 | 79 | 1.6 | 8.0 | 0.05 | 0.76 | 0.43 | 87 | 948.7 |
| 20260503175911 | 14 | 80 | 0.0 | 8.0 | 0.05 | 0.76 | 0.43 | 87 | 948.7 |
| 20260503175409 | 14 | 58 | 3.2 | 8.0 | 0.05 | 0.84 | 0.43 | 87 | 948.8 |
| 20260503175112 | 14 | 28 | 4.8 | 16.1 | 0.03 | 0.91 | 0.41 | 86 | 948.8 |
| 20260503174403 | 15 | 7 | 8.0 | 19.3 | 0.00 | 0.94 | 0.38 | 85 | 948.8 |
| 20260503173906 | 15 | 133 | 8.0 | 19.3 | 0.00 | 0.99 | 0.38 | 84 | 948.8 |
| 20260503173902 | 15 | 158 | 8.0 | 19.3 | 0.00 | 0.99 | 0.38 | 84 | 948.8 |